CW9086 Weather Reports


time (UTC)temp
C
wind
direction
speed
KPH
gust
KPH
rain 1hr
cm
rain 24hr
cm
rain mn
cm
humidity
%
barometer
mb
20260506222605 15 210 0.0 4.8 0.00 0.00 0.00 78 1021.2
20260506222107 15 197 0.0 4.8 0.00 0.00 0.00 79 1021.2
20260506221605 15 195 0.0 4.8 0.00 0.00 0.00 79 1021.3
20260506221105 15 195 1.6 4.8 0.00 0.00 0.00 80 1021.3
20260506220605 15 195 0.0 4.8 0.00 0.00 0.00 80 1021.2
20260506220105 14 195 1.6 4.8 0.00 0.00 0.00 81 1021.3
20260506215605 14 195 0.0 4.8 0.00 0.00 0.00 81 1021.3
20260506215104 14 198 0.0 4.8 0.00 0.00 0.00 81 1021.3
20260506213604 13 210 0.0 1.6 0.00 0.00 0.00 81 1021.3
20260506213104 13 210 0.0 4.8 0.00 0.00 0.00 82 1021.3
20260506212604 13 210 0.0 4.8 0.00 0.00 0.00 81 1021.3
20260506212105 13 209 1.6 3.2 0.00 0.00 0.00 81 1021.3
20260506211604 13 209 0.0 3.2 0.00 0.00 0.00 81 1021.3
20260506210604 13 209 0.0 3.2 0.00 0.00 0.00 80 1021.3
20260506210104 13 195 0.0 3.2 0.00 0.00 0.00 80 1021.2
20260506205604 13 195 0.0 3.2 0.00 0.00 0.00 80 1021.3
20260506205104 13 195 0.0 3.2 0.00 0.00 0.00 80 1021.3
20260506204606 13 195 0.0 1.6 0.00 0.00 0.00 80 1021.2
20260506204105 13 195 0.0 1.6 0.00 0.00 0.00 80 1021.3
20260506203605 13 195 0.0 1.6 0.00 0.00 0.00 79 1021.2
20260506203106 13 195 0.0 1.6 0.00 0.00 0.00 80 1021.1
20260506202604 14 195 0.0 1.6 0.00 0.00 0.00 80 1021.1
20260506202104 14 195 0.0 3.2 0.00 0.00 0.00 80 1021.1
20260506201604 14 195 0.0 3.2 0.00 0.00 0.00 80 1021.0
20260506201106 13 195 0.0 1.6 0.00 0.00 0.00 80 1021.0
20260506200106 13 195 0.0 1.6 0.00 0.00 0.00 80 1021.0
20260506195105 13 195 0.0 3.2 0.00 0.00 0.00 81 1020.9
20260506193105 13 195 0.0 1.6 0.00 0.00 0.00 81 1020.8
20260506192604 13 195 0.0 3.2 0.00 0.00 0.00 80 1020.8
20260506192104 13 209 0.0 3.2 0.00 0.00 0.00 80 1020.7
20260506191605 13 209 0.0 4.8 0.00 0.00 0.00 80 1020.7
20260506191104 13 209 0.0 4.8 0.00 0.00 0.00 80 1020.7
20260506190604 13 209 0.0 4.8 0.00 0.00 0.00 80 1020.6
20260506190104 13 209 0.0 1.6 0.00 0.00 0.00 80 1020.6
20260506185605 13 209 0.0 1.6 0.00 0.00 0.00 80 1020.5
20260506185105 13 209 0.0 3.2 0.00 0.00 0.00 80 1020.5
20260506184604 13 209 0.0 3.2 0.00 0.00 0.00 80 1020.5
20260506184104 13 209 0.0 3.2 0.00 0.00 0.00 80 1020.6
20260506183605 13 209 0.0 1.6 0.00 0.00 0.00 81 1020.4
20260506183104 13 209 0.0 1.6 0.00 0.00 0.00 81 1020.5
20260506182604 13 209 0.0 3.2 0.00 0.00 0.00 80 1020.5
20260506182104 13 209 0.0 3.2 0.00 0.00 0.00 80 1020.5
20260506181604 13 209 0.0 4.8 0.00 0.00 0.00 80 1020.4
20260506181103 13 209 0.0 4.8 0.00 0.00 0.00 80 1020.4
20260506180604 13 209 1.6 4.8 0.00 0.00 0.00 80 1020.4
20260506180104 13 209 0.0 4.8 0.00 0.00 0.00 80 1020.3
20260506175605 13 209 1.6 4.8 0.00 0.00 0.00 80 1020.3
20260506174604 13 209 0.0 1.6 0.00 0.00 0.00 81 1020.3
20260506174104 13 209 0.0 1.6 0.00 0.00 0.00 81 1020.3
20260506173605 13 209 0.0 1.6 0.00 0.00 0.00 81 1020.2
20260506173104 13 209 0.0 1.6 0.00 0.00 0.00 81 1020.2
20260506172604 13 209 0.0 1.6 0.00 0.00 0.00 82 1020.2
20260506172104 12 209 0.0 3.2 0.00 0.00 0.00 82 1020.2
20260506171604 12 209 0.0 3.2 0.00 0.00 0.00 82 1020.1
20260506165104 12 209 0.0 1.6 0.00 0.00 0.00 82 1020.0
20260506164604 12 209 0.0 1.6 0.00 0.00 0.00 82 1019.9
20260506164104 12 209 0.0 1.6 0.00 0.00 0.00 82 1019.9
20260506163604 12 209 0.0 1.6 0.00 0.00 0.00 82 1019.9
20260506162605 12 209 0.0 3.2 0.00 0.00 0.00 82 1019.8
20260506162104 12 209 0.0 1.6 0.00 0.00 0.00 82 1019.8
20260506161605 12 209 0.0 1.6 0.00 0.00 0.00 82 1019.7
20260506160105 12 209 0.0 3.2 0.00 0.00 0.00 83 1019.8
20260506155605 12 209 0.0 1.6 0.00 0.00 0.00 83 1019.7
20260506155104 12 209 0.0 1.6 0.00 0.00 0.00 83 1019.7
20260506154604 12 209 0.0 3.2 0.00 0.00 0.00 83 1019.5
20260506154105 12 209 0.0 3.2 0.00 0.00 0.00 83 1019.5
20260506153105 12 209 0.0 3.2 0.00 0.00 0.00 84 1019.4
20260506152105 12 209 0.0 3.2 0.00 0.00 0.00 84 1019.3
20260506151604 12 209 0.0 0.0 0.00 0.00 0.00 84 1019.2
20260506151104 11 209 0.0 3.2 0.00 0.00 0.00 84 1019.1
20260506150604 11 209 0.0 3.2 0.00 0.00 0.00 84 1019.1
20260506150105 11 209 0.0 0.0 0.00 0.00 0.00 84 1019.0
20260506145605 11 209 0.0 1.6 0.00 0.00 0.00 84 1018.9
20260506145105 11 209 0.0 1.6 0.00 0.00 0.00 84 1019.0
20260506144603 11 209 0.0 1.6 0.00 0.00 0.00 84 1019.1
20260506144105 11 209 0.0 0.0 0.00 0.00 0.00 84 1019.2
20260506143604 11 209 0.0 0.0 0.00 0.00 0.00 84 1019.2
20260506143105 11 209 0.0 0.0 0.00 0.00 0.00 84 1019.1
20260506142605 11 209 0.0 0.0 0.00 0.00 0.00 84 1019.1
20260506142104 11 209 0.0 0.0 0.00 0.00 0.00 84 1019.1
20260506141605 11 209 0.0 1.6 0.00 0.00 0.00 83 1019.0
20260506141104 11 209 0.0 1.6 0.00 0.00 0.00 84 1018.7
20260506140605 11 209 0.0 0.0 0.00 0.00 0.00 83 1018.5
20260506135605 11 209 0.0 0.0 0.00 0.00 0.00 83 1018.4
20260506135104 11 209 0.0 1.6 0.00 0.00 0.00 83 1018.5
20260506134604 11 209 0.0 1.6 0.00 0.00 0.00 83 1018.7
20260506133604 11 209 0.0 1.6 0.00 0.00 0.00 83 1018.2
20260506132104 11 209 0.0 0.0 0.00 0.00 0.00 83 1018.6
20260506131103 11 209 0.0 1.6 0.00 0.00 0.00 83 1018.5
20260506130604 11 209 0.0 1.6 0.00 0.00 0.00 83 1018.5
20260506130104 11 209 0.0 1.6 0.00 0.00 0.00 83 1018.3
20260506125605 11 209 0.0 0.0 0.00 0.00 0.00 83 1018.5
20260506124604 11 209 0.0 0.0 0.00 0.00 0.00 83 1018.4
20260506123603 11 209 0.0 1.6 0.00 0.00 0.00 83 1018.5
20260506123104 11 209 0.0 1.6 0.00 0.00 0.00 83 1018.5
20260506122604 11 209 0.0 1.6 0.00 0.00 0.00 83 1018.3
20260506122104 11 209 0.0 1.6 0.00 0.00 0.00 83 1018.1
20260506121603 11 209 0.0 0.0 0.00 0.00 0.00 83 1018.1
20260506121105 11 209 0.0 0.0 0.00 0.00 0.00 83 1018.3
20260506120604 11 209 0.0 3.2 0.00 0.00 0.00 83 1018.3
20260506120103 11 209 0.0 3.2 0.00 0.00 0.00 83 1018.3
20260506115604 11 209 0.0 1.6 0.00 0.00 0.00 83 1018.4
20260506115106 11 209 0.0 1.6 0.00 0.00 0.00 83 1018.4
20260506114603 11 209 0.0 1.6 0.00 0.00 0.00 83 1018.4
20260506114104 11 209 0.0 0.0 0.00 0.00 0.00 83 1018.2
20260506113605 11 209 0.0 0.0 0.00 0.00 0.00 83 1018.3
20260506113103 11 209 0.0 0.0 0.00 0.00 0.00 83 1018.2
20260506112104 11 209 0.0 0.0 0.00 0.00 0.00 83 1018.1
20260506111604 11 209 0.0 0.0 0.00 0.00 0.00 83 1018.0
20260506111105 11 209 0.0 0.0 0.00 0.00 0.00 82 1018.1
20260506110604 11 209 0.0 0.0 0.00 0.00 0.00 82 1018.0
20260506110104 11 209 0.0 0.0 0.00 0.00 0.00 82 1017.9
20260506105605 11 209 0.0 0.0 0.00 0.00 0.00 83 1017.9
20260506104604 11 209 0.0 0.0 0.00 0.00 0.00 83 1017.7
20260506104103 11 209 0.0 0.0 0.00 0.00 0.00 83 1017.6
20260506103603 11 209 0.0 0.0 0.00 0.00 0.00 83 1017.6
20260506103104 11 209 0.0 0.0 0.00 0.00 0.00 83 1017.6
20260506102103 11 209 0.0 0.0 0.00 0.00 0.00 83 1017.6
20260506101103 12 209 0.0 0.0 0.00 0.00 0.00 83 1017.7
20260506100605 12 209 0.0 0.0 0.00 0.00 0.00 83 1017.7
20260506100104 12 209 0.0 0.0 0.00 0.00 0.00 83 1017.6
20260506095604 12 209 0.0 0.0 0.00 0.00 0.00 82 1017.7
20260506095104 12 209 0.0 0.0 0.00 0.00 0.00 82 1017.6
20260506094605 12 209 0.0 0.0 0.00 0.00 0.00 82 1017.6
20260506094105 12 209 0.0 0.0 0.00 0.00 0.00 82 1017.6
20260506093603 12 209 0.0 0.0 0.00 0.00 0.00 82 1017.5
20260506093104 12 209 0.0 0.0 0.00 0.00 0.00 82 1017.5
20260506092603 12 209 0.0 1.6 0.00 0.00 0.00 82 1017.4
20260506092103 12 209 0.0 1.6 0.00 0.00 0.00 82 1017.4
20260506091603 12 209 0.0 0.0 0.00 0.00 0.00 82 1017.5
20260506091106 12 209 0.0 0.0 0.00 0.00 0.00 82 1017.4
20260506090606 12 209 0.0 0.0 0.00 0.00 0.00 82 1017.3
20260506090106 12 209 0.0 0.0 0.00 0.00 0.00 82 1017.2
20260506085605 12 209 0.0 0.0 0.00 0.00 0.00 82 1017.3
20260506085105 12 209 0.0 0.0 0.00 0.00 0.00 82 1017.3
20260506084606 12 209 0.0 1.6 0.00 0.00 0.00 82 1017.2
20260506084105 12 209 0.0 1.6 0.00 0.00 0.00 82 1017.2
20260506083105 12 209 0.0 1.6 0.00 0.00 0.00 82 1017.3
20260506082106 12 209 0.0 1.6 0.00 0.00 0.00 82 1017.1
20260506081608 12 209 0.0 1.6 0.00 0.00 0.00 82 1017.2
20260506081106 12 209 0.0 1.6 0.00 0.00 0.00 82 1017.1
20260506080605 12 209 0.0 0.0 0.00 0.00 0.00 82 1017.0
20260506073105 12 209 0.0 0.0 0.00 0.00 0.00 81 1016.7
20260506072606 12 209 0.0 1.6 0.00 0.00 0.00 81 1016.7
20260506072105 12 209 0.0 1.6 0.00 0.00 0.00 82 1016.6
20260506070605 12 209 0.0 1.6 0.00 0.00 0.00 82 1016.7
20260506070106 12 209 0.0 1.6 0.00 0.00 0.00 82 1016.5
20260506062105 12 209 0.0 0.0 0.00 0.00 0.00 81 1016.4
20260506061605 12 209 0.0 0.0 0.00 0.00 0.00 81 1016.4
20260506061105 12 209 0.0 0.0 0.00 0.00 0.00 81 1016.4
20260506060605 12 209 0.0 0.0 0.00 0.00 0.00 81 1016.4
20260506060106 12 209 0.0 0.0 0.00 0.00 0.00 81 1016.4
20260506051106 12 212 0.0 1.6 0.00 0.00 0.00 81 1016.3
20260506050105 12 212 0.0 0.0 0.00 0.00 0.00 81 1016.2
20260506045105 13 212 0.0 0.0 0.00 0.00 0.00 81 1016.2
20260506044605 13 212 0.0 0.0 0.00 0.00 0.00 81 1016.1
20260506043605 13 212 0.0 0.0 0.00 0.00 0.00 81 1016.1
20260506042605 13 212 0.0 0.0 0.00 0.00 0.00 80 1016.0
20260506042105 13 212 0.0 0.0 0.00 0.00 0.00 80 1016.0
20260506041605 13 212 0.0 0.0 0.00 0.00 0.00 80 1016.0
20260506040105 13 212 0.0 0.0 0.00 0.00 0.00 80 1015.9
20260506035605 13 212 0.0 1.6 0.00 0.00 0.00 80 1015.9
20260506035105 13 212 0.0 1.6 0.00 0.00 0.00 80 1015.7
20260506034105 13 212 0.0 0.0 0.00 0.00 0.00 80 1015.7
20260506033605 13 212 0.0 0.0 0.00 0.00 0.00 79 1015.6
20260506032605 13 212 0.0 1.6 0.00 0.00 0.00 79 1015.6
20260506032107 13 212 0.0 1.6 0.00 0.00 0.00 79 1015.5
20260506030605 14 212 0.0 1.6 0.00 0.00 0.00 78 1015.3
20260506025605 14 212 0.0 1.6 0.00 0.00 0.00 78 1015.3
20260506025106 14 212 0.0 1.6 0.00 0.00 0.00 78 1015.3
20260506024605 14 212 0.0 1.6 0.00 0.00 0.00 78 1015.3
20260506024105 14 212 0.0 1.6 0.00 0.00 0.00 77 1015.3
20260506023606 15 212 0.0 1.6 0.00 0.00 0.00 77 1015.2
20260506023105 15 212 0.0 1.6 0.00 0.00 0.00 77 1015.2
20260506022605 15 212 0.0 1.6 0.00 0.00 0.00 77 1015.2
20260506021605 15 212 0.0 3.2 0.00 0.00 0.00 76 1015.1
20260506021105 15 212 0.0 3.2 0.00 0.00 0.00 76 1015.1
20260506020604 15 212 0.0 3.2 0.00 0.00 0.00 76 1015.1
20260506020105 15 212 0.0 1.6 0.00 0.00 0.00 76 1015.2
20260506015606 15 212 0.0 1.6 0.00 0.00 0.00 75 1015.1
20260506015105 15 212 0.0 1.6 0.00 0.00 0.00 75 1015.1
20260506014605 15 212 0.0 1.6 0.00 0.00 0.00 74 1015.1
20260506014104 15 212 0.0 3.2 0.00 0.00 0.00 74 1015.2
20260506013605 15 212 0.0 3.2 0.00 0.00 0.00 74 1015.2
20260506013104 15 212 0.0 3.2 0.00 0.00 0.00 74 1015.3
20260506012606 15 212 0.0 3.2 0.00 0.00 0.00 74 1015.3
20260506011606 15 206 0.0 3.2 0.00 0.00 0.00 74 1015.3
20260506011104 16 212 0.0 3.2 0.00 0.00 0.00 74 1015.3
20260506010605 16 212 0.0 3.2 0.00 0.00 0.00 73 1015.3
20260506005104 16 212 0.0 3.2 0.00 0.00 0.00 73 1015.3
20260506004604 16 212 0.0 3.2 0.00 0.00 0.00 73 1015.2
20260506004104 16 212 0.0 3.2 0.00 0.00 0.00 73 1015.3
20260506003605 16 212 0.0 3.2 0.00 0.00 0.00 73 1015.2
20260506003104 16 212 0.0 3.2 0.00 0.00 0.00 72 1015.2
20260506002604 16 212 0.0 1.6 0.00 0.00 0.00 73 1015.2
20260506002105 16 212 0.0 4.8 0.00 0.00 0.00 73 1015.2
20260506001606 16 212 0.0 4.8 0.00 0.00 0.00 73 1015.2
20260506001104 16 212 0.0 3.2 0.00 0.00 0.00 73 1015.2
20260506000604 16 212 0.0 3.2 0.00 0.00 0.00 74 1015.3
20260506000106 16 212 0.0 4.8 0.00 0.00 0.00 73 1015.3
20260505235604 16 212 0.0 4.8 0.00 0.00 0.00 73 1015.5
20260505235106 16 212 0.0 3.2 0.00 0.00 0.00 73 1015.4
20260505234605 16 212 0.0 3.2 0.00 0.00 0.00 73 1015.5
20260505234104 16 212 1.6 3.2 0.00 0.00 0.00 74 1015.6
20260505233605 16 212 0.0 3.2 0.00 0.00 0.00 73 1015.5
20260505233104 16 212 0.0 3.2 0.00 0.00 0.00 73 1015.5
20260505232604 17 212 1.6 3.2 0.00 0.00 0.00 72 1015.6
20260505232105 17 212 0.0 4.8 0.00 0.00 0.00 73 1015.6
20260505231604 17 212 0.0 4.8 0.00 0.00 0.00 72 1015.6
20260505231105 17 212 0.0 3.2 0.00 0.00 0.00 74 1015.6
20260505230605 17 212 0.0 3.2 0.00 0.00 0.00 73 1015.6
20260505230105 17 212 0.0 3.2 0.00 0.00 0.00 73 1015.6
20260505225606 17 212 0.0 3.2 0.00 0.00 0.00 74 1015.7
20260505224604 17 212 0.0 3.2 0.00 0.00 0.00 74 1015.8
20260505224105 17 212 0.0 3.2 0.00 0.00 0.00 73 1015.8
20260505223605 17 212 1.6 3.2 0.00 0.00 0.00 73 1015.8
20260505223104 17 212 0.0 1.6 0.00 0.00 0.00 73 1015.8